Погода Удское

Погода Удское : погода сейчас, прогноз погоды и архив. Всё, что Вы хотите узнать о погоде Удское!

Поиск расширенной информации на нашем сайте:

Другие новости

Новости СМИ2

Главная страница сайта

Новости сайта

03.07.2017

Напоминаем, что на нашем специализированном сайте Метеоцентр.Азия вы можете получить высокодетализированные автоматические прогнозы погоды по пунктам России, СНГ и мира в авиационном формате (включающие направление и скорость ветра, видимость, явления погоды, количество и форму облачности, нижнюю и верхнюю границу облачности).


Погода Удское - сегодня

Время (UTC), дата Ветер
(°,м/с) 
Видим.   Явления Облачность Т
(°С)
Тd
(°С)
f(%) Тe
(°С)
Pmin
(гПа)
dP
(гПа)
Po
(мм)
O2
(г/м3)
Тmin Tmax R s Состояние
почвы
15 19.11.17 250 (З) 20000 м    ясно 
-26.9 -30.7 70 -28  1014.4  -1.2  754  339           
18 19.11.17 250 (З) 20000 м    ясно 
-27.1 -30.9 70 -28  1013  -1.3  753  339           
21 19.11.17 250 (З) 20000 м    ясно 
-27.5 -30.7 74 -28  1012.7  -0.5  753  339  -27.8      31  равномерный
сухой снег
100% 
00 20.11.17 250 (З) 20000 м    3/0 верхняя 
[Cc]
-26 -29.1 75 -29  1012.3  -0.2  753  337           
03 20.11.17 270 (З) 20000 м    3/0 верхняя 
[Ci fib]
-22.8 -27.6 65 -26  1010.5  -1.8  752  332           
06 20.11.17 270 (З) 20000 м    5/0 средняя, верхняя 
[Ac lent|Cc]
-21.5 -27.2 60 -22  1010.5  0.1  752  330           
09 20.11.17 250 (З) 20000 м    5/0 средняя, верхняя 
[Ac lent|Cc]
-23.6 -28.4 65 -24  1011.2  0.6  752  334    -21.3       
12 20.11.17 230 (ЮЗ) 20000 м    5/0 средняя, верхняя 
[Ac lent|Cc]
-22.6 -27.4 65 -26  1011  -0.2  752  332           
15 20.11.17 230 (ЮЗ) 20000 м    5/0 средняя, верхняя 
[Ac lent|Cs]
-24.1 -28.9 64 -27  1011.3  0.3  752  334           
18 20.11.17 230 (ЮЗ) 20000 м    5/0 верхняя 
[Cs]
-25 -29.7 65 -26  1011.7  0.4  752  336           
21 20.11.17 230 (ЮЗ) 20000 м    4/0 верхняя 
[Ci fib]
-24.7 -28.6 70 -25  1011.3  -0.4  752  335  -25.5      31  равномерный
сухой снег
100% 
00 21.11.17 270 (З) 20000 м    1/0 средняя 
[Ac lent]
-28.5   1011.6  0.3  752             
03 21.11.17 200 (Ю) 20000 м    3/0 средняя, верхняя 
[Ac lent|Ci fib]
-17.7 -23.6 60 -20  1011.1  -0.4  752  326           
06 21.11.17 230 (ЮЗ) 20000 м    9/0 средняя, верхняя 
[Ac trans|Cs]
-16.4 -21.5 65 -19  1011  0.1  752  324           
09 21.11.17 250 (З) 20000 м    3/0 верхняя 
[Ci fib]
-18.8 -22.9 70 -19  1011.6  0.4  752  327    -16       
12 21.11.17 230 (ЮЗ) 20000 м    3/0 верхняя 
[Ci fib]
-18.9 -23 70 -19  1011.6  752  327           
15 21.11.17 230 (ЮЗ) 20000 м    3/0 верхняя 
[Ci fib]
-18.8 -22.9 70 -21  1011.6  752  327           
18 21.11.17 250 (З) 20000 м    3/0 верхняя 
[Ci fib]
-21.4 -24.7 75 -22  1011.1  -0.5  752  331           
21 21.11.17 250 (З) 20000 м    3/0 верхняя 
[Ci fib]
-21.9 -26 69 -22  1011.5  0.4  752  331  -22.1      31  равномерный
сухой снег
100% 
00 22.11.17 250 (З) 20000 м    3/0 верхняя 
[Ci fib]
-24.2 -26.7 80 -25  1011.9  0.3  753  335  -24.3         
03 22.11.17 230 (ЮЗ) 20000 м    ясно 
-17 -22.5 62 -17  1010.7  -0.9  752  325           
06 22.11.17 230 (ЮЗ) 20000 м    ясно 
-17.2 -22.2 65 -17  1010  -0.7  751  325           
09 22.11.17 тихо ()   20000 м    ясно 
-25.7 -28.1 80 -26  1011.8  1.5  752  337    -16.8       
12 22.11.17 тихо ()   20000 м    ясно 
-28.4 -30.8 80 -28  1013.1  1.1  753  341           
15 22.11.17 тихо ()   20000 м    ясно 
-28.7 -31.2 79 -29  1013.5  0.4  754  341           
Время (UTC), дата Ветер
(°,м/с) 
Видим.   Явления Облачность Т
(°С)
Тd
(°С)
f(%) Тe
(°С)
Pmin
(гПа)
dP
(гПа)
Po
(мм)
O2
(г/м3)
Тmin Tmax R s Состояние
почвы

Для получения пояснительной информации подведите курсор к названию столбца.

ПОГОДА Удское - архив

Всё, что Вы хотите узнать о погоде Удское - удобно и подробно!

Выберите нужную дату (начиная с 1 января 2015* года) и нажмите кнопку "Найти".
Будут отображены архивные сводки погоды по пункту Удское, начиная с указанной даты.


Отображать данные в формате CSV (для использования в таблицах Excel)


Внимание! Наш архив погоды предназначен исключительно для личного некоммерческого использования в познавательных целях. Если Вам необходимы официальные справки о состоянии погоды (для производственных, юридических, коммерческих и т.п. целей), обращайтесь в органы Росгидромета.

*Примечание: данная дата относится к архиву по метеостанциям СССР (Россия, СНГ, Балтия).
Архив по метеостанциям Зарубежной Европы и Азии (кроме Китая) хранится 10 дней, по другим регионам земного шара (Китай, Африка, Америка, Австралия, Океания) - 1 день.

Удское - район местоположения метеостанции


Название, широта, долгота, высота метеостанции:
Удское 54.53°ш. 134.42°д. 57 м над ур. моря [Российская Федерация]

Дополнительная информация

В oтличие oт бoльшинства пoгoдных сайтoв мы публикуем пoдрoбную метеoинфoрмацию в детальнoм прoфессиoнальнoм фoрмате.

Характеристики температуры и влажнoсти вoздуха измеряются на высoте 2 м в тени вдали oт зданий и деревьев.
Скoрoсть ветра измеряется на высoте 10 м (на урoвне рoста челoвека скoрoсть ветра ниже в 1.5-2 раза). Если метеoстанция нахoдится в гoрoде или в лесу, тo скoрoсть ветра занижена на 2-4 м/с пo сравнению с oткрытым местoм. Скoрoсть ветра над акватoриями крупных рек и oзёр, а также на вершинах хoлмoв на 2-5 м/с выше, чем в oбычных услoвиях.
Атмoсфернoе давление в разных тoчках местнoсти мoжет значительнo oтличаться oт давления на метеoстанции, в зависимoсти oт услoвий рельефа (при пoдъёме на 10 м давление пoнижается примернo на 1 мм рт.ст.).